Location: Borojevi?i
(45.0486°N, 16.2297°E)
Time: 07:04:41
(UTC+00:00)

Cosmos 1867 - Pass Details

Date: 08 August 2020
Orbit: 777 x 798 km, 65.0° (Epoch: 26 September)

Event Time Altitude Azimuth Distance (km) Brightness Sun altitude
Rises 20:59:09 0° 230° (SW) 3,271 6.7 -23.2°
Reaches altitude 10° 21:01:37 10° 235° (SW) 2,349 6.0 -23.4°
Maximum altitude 21:06:52 51° 311° (NW) 991 4.4 -23.9°
Drops below altitude 10° 21:12:12 10° 28° (NNE) 2,374 6.4 -24.3°
Sets 21:14:43 0° 33° (NNE) 3,309 7.2 -24.6°
